Location: *
(46.1333°S, 161.2167°W)
Time: 04:22:11
(UTC+00:00)

Cosmos 1606 Rocket - Pass Details

Date: 15 July 2020
Orbit: 603 x 631 km, 82.5° (Epoch: 10 August)

Event Time Altitude Azimuth Distance (km) Brightness Sun altitude
Exits shadow 16:52:44 - 191° (SSW) 2,783 6.6 -14.9°
Reaches altitude 10° 16:54:41 10° 192° (SSW) 1,991 5.9 -14.6°
Maximum altitude 16:59:04 74° 276° (W) 645 3.4 -13.9°
Drops below altitude 10° 17:03:25 10° 1° (N) 1,965 6.4 -13.2°
Sets 17:05:37 0° 2° (N) 2,863 7.2 -12.8°
